Powrót do katalogu

STARLINK-3249

AktywnyŁącznośćVLEO
NORAD 49730·PAYLOAD·🇺🇸 United States

Wystrzelony Dec 2, 2021 z Cape Canaveral Space Force Station

Loading…

Następne Przeloty (najbliższe 24 godziny)

TLE

ŚwieżeSource: CelesTrak SupGP

Epoka: Sep 14, 2026, 20:33 UTC

1 49730C 21115G   26257.85673611 -.00005709  00000+0 -16868-3 0  2573
2 49730  53.1601  16.2533 0001164  75.4737 299.8694 15.34391313    17

Śledź STARLINK-3249 w czasie rzeczywistym z AllMySat

Download on the App Store